State College, PA

11:35 PM EST on November 21, 2017 (GMT -0500)
University Park

Weather History for KUNV - May, 2014

Change the Weather History Date:

Tuesday, May 27, 2014

  Actual Average Record
Temperature  
Mean Temperature 72 °F -  
Max Temperature 82 °F 70 °F 88 °F (1941)
Min Temperature 61 °F 48 °F 36 °F (1930)
Cooling Degree Days 6    
Growing Degree Days 22 (Base 50)    
Moisture  
Dew Point 59 °F    
Average Humidity 76    
Maximum Humidity 100    
Minimum Humidity 54    
Precipitation  
Precipitation 0.00 in - - ()
Sea Level Pressure  
Sea Level Pressure 29.94 in    
Wind  
Wind Speed 5 mph (SW)    
Max Wind Speed 23 mph    
Max Gust Speed 34 mph    
Visibility 9 miles    
Events Rain , Thunderstorm    
Averages and records for this station are not official NWS values.
T = Trace of Precipitation, MM = Missing Value Source: NWS Daily Summary

Daily Weather History Graph

Daily Weather History Graph

Search for Another Location

Airport or City:

Trip Planner

Search our weather history database for the weather conditions in past years. The results will help you decide how hot, cold, wet, or windy it might be!

Date:

Astronomy

May. 27, 2014 Rise Set
Actual Time 5:44 AM EDT 8:32 PM EDT
Civil Twilight 5:12 AM EDT 9:05 PM EDT
Nautical Twilight 4:31 AM EDT 9:46 PM EDT
Astronomical Twilight 3:45 AM EDT 10:33 PM EDT
Moon 5:06 AM EDT (5/27) 7:32 PM EDT (5/27)
Length of Visible Light 15h 53m
Length of Day
14h 48m
Waning Crescent, 1% of the Moon is Illuminated
May 27
Waning Crescent
May 28
New
Jun 5
First Quarter
Jun 13
Full
Jun 19
Last Quarter

Hourly Weather History & Observations

Time (EDT) Temp. Heat Index Dew Point Humidity Pressure Visibility Wind Dir Wind Speed Gust Speed Precip Events Conditions
12:15 AM 65.8 °F - 51.6 °F 60% 30.00 in 10.0 mi WSW 8.1 mph - N/A   Clear
12:35 AM 64.2 °F - 51.8 °F 64% 30.00 in 10.0 mi SW 5.8 mph - N/A   Clear
12:55 AM 63.9 °F - 51.8 °F 65% 30.00 in 10.0 mi SW 4.6 mph - N/A   Clear
1:15 AM 62.8 °F - 52.0 °F 68% 30.00 in 10.0 mi Calm Calm - N/A   Clear
1:35 AM 62.8 °F - 51.8 °F 67% 30.00 in 10.0 mi SSW 3.5 mph - N/A   Scattered Clouds
2:15 AM 62.8 °F - 52.2 °F 68% 29.99 in 10.0 mi SW 4.6 mph - N/A   Scattered Clouds
2:35 AM 63.7 °F - 51.8 °F 65% 29.98 in 10.0 mi SW 4.6 mph - N/A   Mostly Cloudy
2:55 AM 63.5 °F - 52.3 °F 67% 29.98 in 10.0 mi SW 3.5 mph - N/A   Mostly Cloudy
3:15 AM 62.6 °F - 52.9 °F 70% 29.98 in 10.0 mi SSW 3.5 mph - N/A   Overcast
3:35 AM 61.9 °F - 53.1 °F 73% 29.98 in 10.0 mi SW 4.6 mph - N/A   Overcast
3:55 AM 63.3 °F - 53.1 °F 69% 29.98 in 10.0 mi SSW 3.5 mph - N/A   Overcast
4:15 AM 63.0 °F - 54.1 °F 73% 29.97 in 10.0 mi SSW 3.5 mph - N/A   Overcast
4:35 AM 63.9 °F - 52.9 °F 67% 29.96 in 10.0 mi SSW 3.5 mph - N/A   Overcast
4:55 AM 64.2 °F - 53.4 °F 68% 29.96 in 10.0 mi SW 3.5 mph - N/A   Overcast
5:15 AM 65.3 °F - 53.1 °F 65% 29.96 in 10.0 mi Calm Calm - N/A   Overcast
5:35 AM 63.7 °F - 53.6 °F 70% 29.96 in 10.0 mi SW 5.8 mph - N/A   Scattered Clouds
5:53 AM 64.4 °F - 53.6 °F 68% 29.96 in 10.0 mi SW 4.6 mph - N/A   Scattered Clouds
6:53 AM 62.6 °F - 55.4 °F 77% 29.97 in 10.0 mi Calm Calm - N/A   Scattered Clouds
7:53 AM 69.8 °F - 60.8 °F 73% 29.98 in 10.0 mi West 5.8 mph - N/A   Scattered Clouds
8:53 AM 71.6 °F - 60.8 °F 69% 29.97 in 10.0 mi West 5.8 mph - N/A   Scattered Clouds
9:53 AM 73.4 °F - 64.4 °F 73% 29.97 in 10.0 mi WSW 4.6 mph - N/A   Scattered Clouds
10:53 AM 75.2 °F - 64.4 °F 69% 29.96 in 10.0 mi WNW 6.9 mph - N/A   Mostly Cloudy
11:53 AM 77.0 °F - 62.6 °F 61% 29.96 in 10.0 mi West 10.4 mph - N/A   Scattered Clouds
12:53 PM 80.6 °F 82.3 °F 64.4 °F 58% 29.93 in 10.0 mi WSW 9.2 mph - N/A   Scattered Clouds
1:53 PM 82.4 °F 83.9 °F 64.4 °F 54% 29.89 in 10.0 mi West 10.4 mph 18.4 mph N/A   Scattered Clouds
2:20 PM 80.6 °F 82.3 °F 64.4 °F 58% 29.88 in 6.0 mi WSW 10.4 mph - N/A Rain , Thunderstorm Thunderstorms and Rain
2:38 PM 75.2 °F - 62.6 °F 65% 29.91 in 3.0 mi West 23.0 mph 34.5 mph N/A Rain , Thunderstorm Heavy Thunderstorms and Rain
2:43 PM 71.6 °F - 60.8 °F 69% 29.93 in 2.0 mi West 17.3 mph 34.5 mph N/A Rain , Thunderstorm Heavy Thunderstorms and Rain
2:53 PM 64.4 °F - 62.6 °F 94% 29.95 in 2.0 mi NW 8.1 mph 17.3 mph N/A Rain , Thunderstorm Heavy Thunderstorms and Rain
3:53 PM 66.2 °F - 64.4 °F 94% 29.92 in 7.0 mi Calm Calm - N/A   Overcast
4:40 PM 66.2 °F - 64.4 °F 94% 29.91 in 3.0 mi Calm Calm - N/A Rain Rain
4:53 PM 66.2 °F - 66.2 °F 100% 29.90 in 6.0 mi SSW 5.8 mph - N/A Rain Light Rain
5:53 PM 69.8 °F - 66.2 °F 88% 29.89 in 10.0 mi WSW 5.8 mph - N/A   Overcast
6:53 PM 71.6 °F - 68.0 °F 88% 29.89 in 10.0 mi Calm Calm - N/A   Mostly Cloudy
7:53 PM 69.8 °F - 66.2 °F 88% 29.90 in 10.0 mi Calm Calm - N/A Rain , Thunderstorm Light Thunderstorms and Rain
8:53 PM 66.2 °F - 64.4 °F 94% 29.90 in 6.0 mi SSW 5.8 mph - N/A   Mostly Cloudy
9:55 PM 66.6 °F - 65.1 °F 95% 29.91 in 10.0 mi South 5.8 mph - N/A Thunderstorm Scattered Clouds
10:15 PM 66.0 °F - 64.6 °F 95% 29.91 in 7.0 mi SSW 4.6 mph - N/A   Clear
10:35 PM 66.2 °F - 64.4 °F 94% 29.91 in 10.0 mi SSW 4.6 mph - N/A   Clear
10:55 PM 65.7 °F - 63.9 °F 94% 29.91 in 10.0 mi SSW 3.5 mph - N/A   Clear
11:15 PM 66.0 °F - 63.7 °F 92% 29.90 in 10.0 mi SSW 4.6 mph - N/A   Clear
11:35 PM 65.8 °F - 63.7 °F 93% 29.90 in 10.0 mi SW 5.8 mph - N/A   Clear
11:55 PM 66.0 °F - 63.7 °F 92% 29.90 in 10.0 mi SW 6.9 mph - N/A   Clear